Temp
19 19 20 20 21 21 22 22 22 22 22 22 23 23 23 24 24 24 25 25 25 25 24 24 24 23 23 22 20 21 20 21 24 27 28 29 29 28 28 25 25 24 23 23 22
19 19 20 20 21 21 22 22 22 22 22 23 23 23 23 24 25 25 27 26 25 24 25 24 24 24 22 22 22 21 21 22 26 27 29 29 29 29 27 26 24 23 23 23 22
19 19 20 21 21 21 22 23 23 23 23 23 23 23 23 24 25 27 27 26 25 25 25 24 26 24 21 21 21 21 22 26 27 27 28 29 29 29 26 24 24 23 23 23 23
19 20 20 21 21 22 23 23 23 23 23 23 23 23 24 24 25 27 27 26 25 25 24 22 25 23 21 21 21 21 24 24 27 28 28 29 30 28 27 26 25 24 24 23 23
19 20 20 21 21 22 23 23 23 23 24 23 23 23 24 24 27 27 27 26 26 25 25 24 22 20 20 21 21 23 24 28 30 30 29 28 27 27 27 25 24 24 24 23 23
19 20 21 21 22 22 23 23 24 24 24 24 24 24 24 23 28 27 27 26 26 26 25 23 20 23 22 21 22 24 25 27 28 29 29 28 27 27 26 25 24 24 24 24 24
19 20 21 21 22 22 23 24 24 24 24 24 24 24 24 27 28 27 27 27 27 26 25 23 24 22 23 23 24 25 25 26 28 28 27 29 25 26 25 26 25 25 25 24 24
19 20 21 22 22 23 23 24 24 24 24 24 24 24 25 28 27 27 28 28 27 26 25 26 25 23 21 24 25 24 23 24 25 26 27 26 24 25 24 26 26 25 25 25 25
20 20 21 22 22 23 24 24 24 24 24 24 24 24 26 28 28 28 28 28 28 27 26 25 25 24 23 23 21 22 23 23 25 27 27 26 24 24 24 24 25 26 26 26 26
20 21 21 22 23 23 24 24 25 25 24 24 24 23 27 29 29 29 29 29 28 28 28 26 24 22 21 21 25 23 23 23 24 25 27 26 23 23 25 23 23 25 25 26 26
20 21 22 22 23 24 24 24 25 25 25 26 27 28 29 29 30 29 30 29 29 28 24 23 23 23 23 24 25 24 24 24 26 26 28 26 24 22 23 22 23 24 26 27 27
21 21 22 22 23 24 24 25 26 26 25 29 28 27 29 29 29 30 30 29 28 25 25 23 24 25 26 27 25 23 23 23 26 28 27 23 24 23 23 23 24 25 25 26 27
21 22 22 23 23 24 25 27 27 26 25 29 29 29 30 30 30 30 30 30 27 26 24 24 27 28 27 26 26 24 23 25 28 27 26 24 23 22 23 23 23 25 26 26 26
21 22 22 23 23 24 27 27 26 25 21 25 28 30 30 31 30 31 31 30 26 26 25 23 26 29 30 30 26 24 27 28 28 26 24 25 23 21 21 22 23 23 24 26 27
22 22 22 23 24 26 27 27 26 26 22 29 28 31 32 31 31 31 31 30 25 26 25 26 27 28 28 31 30 30 31 30 29 25 25 26 24 24 21 22 23 25 25 27 28
22 23 23 23 24 25 27 27 27 22 23 29 30 30 29 31 31 32 31 30 28 27 26 26 29 28 29 31 30 32 29 26 23 22 22 24 24 24 23 25 26 27 29 29 29
22 23 23 24 25 25 26 27 21 22 27 28 28 29 28 27 27 30 30 28 26 26 25 24 27 30 32 30 29 28 24 23 23 24 23 22 24 24 26 26 26 26 29 27 28
22 23 24 25 26 27 27 22 24 25 27 30 28 26 25 22 26 26 27 26 27 25 22 24 26 29 31 30 30 30 25 23 26 24 26 24 25 26 27 29 31 32 31 28 28
23 23 24 25 25 25 25 21 22 25 31 30 27 24 23 24 25 24 26 25 26 25 26 25 26 30 31 31 30 31 28 26 25 24 24 23 27 28 27 28 28 29 29 27 27
23 23 25 25 25 25 21 20 24 27 29 28 27 27 23 24 26 25 26 28 29 26 26 27 26 28 31 31 31 29 29 26 21 26 27 24 26 24 26 26 25 25 26 27 26
23 24 27 26 25 24 20 21 26 29 30 31 29 28 24 23 23 24 27 29 28 26 25 25 24 27 29 29 28 28 27 25 22 21 23 22 24 23 24 24 24 24 26 26 25
23 19 27 27 23 21 20 25 28 29 30 32 32 28 24 24 24 24 25 28 30 27 26 25 22 24 27 27 28 29 29 24 22 25 21 21 23 25 26 25 24 24 25 26 26
23 24 27 27 21 20 23 25 28 28 28 31 30 30 30 26 29 26 30 32 32 28 28 28 23 21 23 24 26 27 27 29 21 19 24 23 23 23 23 23 24 24 25 26 26
23 19 27 27 27 24 25 24 27 30 30 32 31 31 29 29 28 30 31 31 32 31 31 29 21 22 21 24 24 27 26 27 24 21 23 22 26 24 22 22 23 25 27 27 26
24 21 24 21 23 24 25 25 25 26 31 33 31 31 30 30 27 27 28 28 28 29 29 25 25 23 23 23 27 27 28 27 26 25 25 25 22 21 21 21 24 26 25 24 24
23 22 23 22 24 23 22 25 26 27 28 29 30 31 28 28 27 28 27 27 29 28 28 23 25 24 27 27 27 27 26 26 26 27 27 22 23 22 24 25 25 25 25 24 24
22 22 22 23 21 22 24 25 26 27 30 31 30 28 27 29 30 30 30 28 29 28 25 24 23 22 23 24 25 24 26 26 26 26 25 22 22 21 22 23 23 24 24 24 23
Height
1518 1516 1516 1516 1516 1516 1516 1516 1517 1518 1519 1521 1524 1525 1526 1526 1525 1522 1522 1524 1523 1524 1524 1524 1523 1525 1524 1525 1529 1532 1536 1537 1524 1515 1512 1505 1507 1512 1511 1515 1519 1520 1520 1525 1531
1517 1516 1515 1515 1515 1515 1515 1516 1517 1518 1519 1521 1523 1524 1525 1524 1523 1520 1522 1521 1522 1523 1524 1523 1523 1524 1524 1526 1527 1529 1524 1520 1510 1508 1507 1508 1508 1511 1515 1519 1521 1521 1526 1529 1532
1517 1515 1515 1515 1514 1514 1514 1515 1516 1517 1519 1521 1522 1524 1524 1523 1522 1518 1519 1520 1522 1523 1523 1524 1521 1523 1525 1527 1529 1531 1530 1512 1509 1512 1514 1512 1511 1512 1516 1522 1517 1519 1525 1529 1533
1516 1515 1514 1514 1514 1513 1514 1515 1515 1517 1519 1520 1522 1523 1523 1523 1525 1517 1518 1520 1521 1523 1524 1525 1523 1521 1526 1528 1527 1533 1522 1519 1512 1511 1508 1507 1510 1513 1514 1517 1517 1519 1523 1529 1532
1515 1513 1513 1513 1513 1513 1513 1514 1515 1517 1519 1520 1522 1522 1522 1522 1517 1516 1518 1519 1521 1524 1524 1524 1523 1526 1530 1532 1530 1523 1517 1514 1508 1509 1510 1509 1514 1519 1516 1518 1521 1523 1527 1531 1534
1513 1513 1512 1512 1512 1512 1512 1514 1515 1516 1518 1520 1520 1521 1521 1521 1516 1516 1517 1519 1520 1520 1520 1527 1523 1522 1516 1520 1526 1514 1517 1517 1510 1513 1512 1508 1515 1513 1523 1523 1523 1523 1527 1529 1530
1512 1511 1511 1511 1511 1512 1512 1513 1515 1516 1518 1519 1520 1519 1518 1515 1515 1516 1516 1517 1517 1518 1521 1524 1525 1524 1518 1519 1518 1516 1517 1513 1512 1513 1511 1509 1522 1522 1524 1526 1527 1524 1525 1528 1529
1511 1509 1509 1510 1511 1511 1512 1513 1514 1516 1517 1518 1518 1518 1513 1512 1513 1515 1516 1516 1519 1524 1525 1521 1520 1522 1522 1516 1515 1520 1519 1526 1515 1512 1515 1517 1535 1524 1525 1523 1525 1526 1523 1525 1527
1509 1508 1508 1509 1510 1511 1511 1512 1514 1515 1516 1517 1519 1517 1511 1510 1510 1512 1515 1515 1515 1521 1523 1521 1523 1523 1519 1520 1532 1527 1535 1533 1526 1514 1514 1516 1528 1514 1516 1516 1516 1519 1523 1522 1522
1508 1507 1507 1508 1509 1510 1511 1512 1513 1515 1515 1516 1517 1520 1510 1507 1508 1510 1512 1513 1516 1515 1518 1525 1527 1524 1525 1528 1539 1534 1531 1525 1526 1514 1509 1514 1517 1507 1508 1513 1516 1517 1517 1516 1517
1505 1505 1507 1508 1508 1509 1511 1512 1517 1517 1514 1509 1508 1506 1506 1507 1508 1509 1509 1510 1513 1513 1517 1519 1523 1530 1523 1512 1514 1521 1525 1525 1512 1506 1507 1512 1514 1509 1509 1512 1511 1510 1510 1512 1516
1503 1503 1505 1507 1508 1509 1511 1512 1513 1516 1510 1503 1504 1504 1504 1506 1510 1507 1509 1512 1511 1517 1515 1519 1523 1512 1507 1508 1515 1522 1527 1524 1508 1499 1506 1516 1517 1510 1511 1508 1508 1510 1509 1511 1514
1501 1502 1504 1506 1508 1510 1511 1511 1512 1513 1509 1501 1500 1501 1500 1502 1504 1505 1508 1510 1511 1514 1517 1522 1510 1506 1511 1510 1516 1519 1523 1513 1507 1505 1510 1518 1527 1517 1511 1510 1508 1506 1508 1507 1508
1499 1501 1503 1505 1510 1509 1510 1513 1513 1514 1521 1505 1498 1498 1499 1500 1500 1500 1505 1506 1509 1513 1512 1517 1503 1503 1502 1503 1506 1524 1496 1503 1502 1514 1536 1512 1549 1524 1513 1509 1509 1502 1502 1501 1503
1498 1500 1502 1505 1507 1509 1513 1511 1511 1513 1551 1495 1495 1495 1495 1499 1499 1499 1501 1502 1508 1508 1511 1512 1502 1501 1503 1496 1495 1499 1486 1491 1490 1507 1515 1518 1533 1520 1512 1514 1502 1496 1496 1496 1497
1496 1499 1502 1504 1505 1508 1508 1509 1512 1529 1545 1498 1491 1492 1495 1496 1498 1499 1502 1503 1505 1507 1508 1506 1498 1497 1493 1487 1487 1485 1491 1497 1506 1517 1543 1518 1523 1521 1516 1502 1498 1494 1492 1492 1493
1496 1499 1501 1504 1506 1507 1507 1509 1529 1542 1497 1499 1496 1493 1498 1506 1504 1501 1501 1505 1513 1523 1523 1512 1501 1489 1487 1493 1486 1491 1511 1543 1545 1541 1545 1513 1521 1511 1494 1491 1488 1489 1489 1492 1492
1496 1499 1501 1504 1506 1507 1507 1512 1534 1509 1500 1485 1489 1499 1513 1516 1509 1508 1508 1513 1505 1510 1527 1530 1527 1496 1483 1489 1494 1492 1507 1539 1546 1551 1529 1511 1525 1504 1482 1483 1484 1484 1487 1490 1490
1496 1499 1502 1504 1506 1508 1510 1529 1524 1505 1485 1486 1495 1515 1523 1514 1510 1512 1514 1511 1501 1501 1518 1525 1517 1487 1483 1481 1486 1493 1509 1497 1520 1525 1531 1526 1503 1490 1487 1484 1484 1485 1487 1490 1490
1497 1500 1501 1505 1506 1508 1511 1521 1505 1492 1487 1484 1507 1503 1524 1514 1506 1512 1512 1490 1495 1493 1495 1504 1523 1493 1483 1479 1482 1487 1486 1517 1527 1541 1538 1533 1517 1519 1495 1491 1488 1487 1487 1491 1492
1500 1502 1501 1503 1507 1509 1520 1513 1496 1487 1489 1486 1494 1498 1509 1511 1513 1513 1506 1489 1488 1493 1498 1505 1516 1504 1490 1497 1499 1494 1502 1504 1515 1530 1546 1554 1529 1486 1487 1484 1486 1489 1489 1492 1493
1500 1502 1500 1502 1509 1508 1512 1501 1492 1486 1481 1478 1478 1485 1501 1501 1509 1510 1506 1490 1484 1489 1504 1499 1514 1522 1505 1491 1486 1488 1494 1509 1532 1528 1530 1534 1523 1478 1477 1481 1483 1489 1490 1491 1492
1501 1499 1497 1500 1512 1512 1501 1496 1495 1487 1481 1477 1482 1482 1485 1495 1503 1501 1490 1483 1483 1487 1492 1490 1516 1540 1523 1503 1490 1497 1494 1492 1509 1520 1524 1536 1522 1483 1479 1483 1485 1486 1489 1490 1490
1502 1503 1499 1500 1498 1499 1502 1499 1495 1485 1480 1476 1479 1479 1483 1487 1486 1490 1487 1481 1479 1480 1483 1486 1512 1524 1544 1524 1509 1507 1500 1496 1506 1530 1523 1521 1500 1491 1488 1487 1487 1486 1486 1486 1486
1502 1501 1501 1505 1499 1497 1499 1497 1497 1495 1480 1475 1478 1478 1482 1491 1494 1496 1488 1484 1482 1483 1485 1489 1510 1509 1507 1504 1498 1498 1497 1496 1500 1500 1509 1497 1501 1493 1486 1483 1482 1483 1483 1484 1484
1503 1503 1501 1499 1495 1493 1497 1497 1493 1487 1487 1482 1482 1477 1481 1489 1491 1495 1492 1491 1490 1489 1489 1492 1506 1504 1503 1495 1494 1498 1493 1491 1489 1485 1482 1490 1490 1480 1481 1480 1481 1480 1479 1478 1479
1502 1503 1503 1496 1496 1497 1501 1497 1488 1485 1479 1478 1476 1480 1485 1484 1483 1483 1483 1485 1487 1489 1492 1494 1502 1510 1519 1500 1499 1510 1492 1487 1485 1478 1479 1494 1479 1475 1478 1477 1477 1477 1476 1476 1476
Wind_Speed
8 6 4 3 3 2 3 4 5 6 6 5 4 3 4 5 8 10 9 1 2 4 2 2 5 3 5 2 4 3 2 4 3 1 3 21 18 22 20 29 12 18 22 31 33
8 6 5 3 3 2 3 4 5 5 5 4 3 3 4 6 9 15 3 7 2 1 2 6 4 10 7 5 4 3 2 6 8 1 4 8 18 17 15 18 15 22 27 31 32
8 6 5 4 3 2 3 4 5 6 5 4 2 2 5 7 12 2 4 6 6 3 2 10 5 10 10 6 6 6 4 8 10 24 8 8 11 8 19 8 32 34 38 33 32
8 6 5 4 3 2 4 5 5 5 5 4 3 3 5 7 1 5 2 9 8 5 4 4 12 9 4 3 2 2 18 22 18 20 16 13 10 5 12 12 31 35 37 36 29
8 6 5 4 3 3 4 5 5 5 5 4 3 4 6 6 6 3 4 9 8 7 7 19 25 9 4 5 6 7 15 13 17 14 8 24 19 11 15 30 33 37 35 35 26
8 6 5 4 3 4 5 5 6 6 5 4 3 4 6 4 2 2 7 9 8 6 4 9 18 6 6 5 1 14 14 16 25 10 9 22 8 20 13 26 33 34 33 32 26
8 6 5 5 4 4 5 6 7 6 5 4 4 6 10 10 1 4 4 9 3 4 5 17 12 19 4 7 3 6 5 4 7 6 5 19 6 7 11 21 22 31 30 30 27
8 6 5 5 4 5 6 6 7 6 5 5 5 7 8 3 7 7 4 4 3 7 7 6 11 14 6 8 5 5 3 4 5 7 5 14 1 6 4 10 9 21 30 30 30
8 6 5 5 5 6 6 7 7 6 6 5 4 5 9 7 11 7 5 2 6 7 6 16 27 10 3 1 4 4 2 1 4 0 3 7 5 8 9 4 11 12 24 30 31
7 6 6 6 6 7 8 7 6 5 6 6 8 7 8 7 6 11 7 9 7 10 2 10 11 3 3 3 1 5 2 4 4 4 6 3 4 5 17 5 11 11 14 25 31
7 6 7 7 7 9 10 8 3 2 9 11 4 9 13 12 10 11 6 10 15 4 4 4 3 3 9 8 4 3 4 6 6 8 4 5 7 10 16 16 16 14 15 24 21
7 7 7 8 9 10 12 6 6 4 9 12 24 24 20 14 8 9 9 10 3 1 4 4 2 6 10 6 4 2 2 9 9 8 5 4 5 7 12 12 20 7 20 26 27
7 8 9 9 9 11 14 6 1 13 3 9 16 18 17 12 13 12 14 8 3 3 2 3 5 6 13 11 7 6 6 6 6 10 7 6 6 4 8 15 21 26 15 24 28
8 9 10 9 7 12 13 4 13 13 5 6 6 9 16 10 3 15 17 10 3 1 2 5 5 8 7 10 14 4 12 8 12 5 5 7 3 6 7 12 16 26 26 30 30
10 11 12 13 7 13 6 2 10 1 4 4 6 4 10 9 1 12 19 7 7 4 5 6 6 7 6 4 11 7 3 4 8 5 6 4 4 5 6 8 14 19 28 30 31
10 12 13 15 9 3 3 1 0 5 5 3 11 5 6 7 4 3 16 5 3 3 3 9 14 4 5 9 5 2 4 9 5 3 4 7 6 5 6 8 5 8 17 17 22
11 12 16 13 8 1 2 2 5 3 5 5 6 5 3 6 7 0 3 3 4 1 3 6 6 5 6 4 5 8 6 3 5 4 6 6 4 7 6 7 8 11 16 20 17
10 13 18 15 7 4 1 5 2 5 6 3 6 7 5 9 4 7 3 2 2 4 3 2 6 3 5 7 5 1 6 5 3 3 4 4 5 5 8 21 17 12 16 19 19
9 12 16 12 5 2 3 3 6 5 5 8 6 8 6 3 5 7 4 6 8 10 5 4 5 3 5 5 6 3 1 5 4 1 4 3 3 5 2 3 4 11 20 21 20
8 9 18 13 6 3 4 5 5 4 10 8 4 6 7 5 5 5 4 6 3 7 9 1 3 3 7 4 5 6 3 4 4 2 3 6 3 5 6 8 6 5 22 20 18
9 3 16 16 9 3 2 7 6 16 10 5 7 5 2 6 5 8 8 5 6 4 7 3 3 8 4 5 5 2 3 5 4 5 4 2 6 8 10 9 9 9 22 24 24
4 1 22 20 4 3 2 5 5 18 36 5 4 5 10 8 6 2 6 8 13 11 6 8 5 2 6 6 5 4 0 2 5 6 1 4 6 6 4 6 21 20 25 22 19
2 6 23 25 4 2 8 8 10 13 7 5 5 5 2 7 3 7 5 5 16 9 9 3 2 4 11 9 6 6 5 3 4 3 3 4 6 9 10 11 18 25 21 17 12
3 3 6 20 7 5 2 6 5 18 10 4 4 5 6 6 4 4 1 7 12 7 8 6 3 7 6 8 4 6 7 4 4 3 3 6 4 2 4 9 11 18 16 14 16
2 3 4 3 7 8 4 4 8 7 10 2 4 2 4 0 5 5 6 6 4 9 4 5 5 6 7 9 3 2 4 8 4 7 5 9 8 8 8 9 16 16 14 15 15
1 4 5 7 10 6 5 6 6 12 5 7 5 3 5 5 5 0 2 4 1 3 1 3 3 6 3 6 2 4 5 7 7 5 2 6 3 7 14 12 11 9 9 13 14
2 2 4 6 5 5 1 5 10 8 9 3 5 4 6 4 8 6 4 1 4 4 4 4 3 2 6 5 5 5 6 7 7 8 7 7 9 7 6 9 15 14 12 10 7
Wind_Direction
342 345 328 314 288 246 197 192 191 196 201 206 217 244 261 275 277 278 260 125 340 345 61 84 27 220 164 121 31 56 100 239 283 266 91 113 116 152 150 142 160 183 166 154 170
341 340 325 312 288 249 204 194 193 198 204 208 221 259 291 299 296 275 241 255 276 205 272 25 76 148 111 359 32 99 259 226 196 238 135 131 137 141 120 153 112 122 149 150 163
339 336 321 305 281 239 203 197 193 199 200 208 232 275 304 322 312 355 228 152 147 169 179 62 64 117 85 347 24 4 260 294 298 130 111 250 148 133 118 130 148 145 154 161 166
334 331 317 294 271 228 199 197 194 195 198 210 240 295 307 307 259 331 124 123 154 149 93 52 37 52 73 330 5 287 255 256 311 168 185 157 138 114 145 169 159 154 158 165 169
328 325 313 282 258 222 201 196 189 192 202 218 252 295 307 297 286 283 142 147 150 126 91 99 49 29 341 356 282 271 270 323 143 179 122 87 74 53 115 148 154 154 162 169 176
320 322 304 269 245 219 202 196 194 199 208 230 263 282 291 274 325 106 156 156 148 163 126 86 33 44 281 202 224 258 290 305 101 251 101 93 82 101 99 148 154 160 169 177 185
313 314 293 262 239 215 201 195 197 204 214 235 262 283 278 269 125 66 160 151 150 186 168 187 181 180 163 314 202 274 304 261 82 341 79 86 22 91 80 155 167 170 174 187 196
306 305 281 253 227 208 194 191 195 202 215 235 266 301 266 305 268 223 164 164 225 253 233 241 184 183 219 269 1 349 49 54 316 51 53 49 13 8 96 147 176 190 184 193 202
298 294 266 240 216 200 186 185 191 203 223 246 274 282 272 192 217 204 223 254 279 225 146 158 151 204 205 57 11 15 14 121 306 260 158 138 190 267 229 214 213 186 206 204 209
290 280 250 225 205 188 175 175 184 206 231 254 250 292 245 232 191 192 199 221 227 182 213 147 185 156 7 176 184 217 259 265 208 204 124 147 194 267 263 272 247 211 198 217 216
282 264 234 213 197 182 173 160 169 237 258 229 208 223 292 324 183 190 194 225 233 125 160 161 123 184 207 227 118 167 245 242 261 204 121 216 214 234 240 250 257 196 207 216 217
268 246 223 205 195 190 183 168 116 339 293 266 252 260 277 287 239 210 209 211 100 174 339 9 296 176 210 217 150 231 232 266 281 167 116 140 278 225 216 251 240 218 202 208 223
251 224 211 199 194 194 194 150 324 352 260 283 247 254 269 188 213 218 200 181 135 192 67 222 214 126 184 238 216 207 219 246 225 136 42 106 329 238 236 253 266 264 245 223 216
230 210 202 190 189 189 170 75 323 334 45 277 192 256 254 244 266 231 191 162 65 358 5 243 275 273 266 235 196 267 219 246 95 129 190 171 255 270 228 240 249 259 257 248 233
215 201 195 178 170 189 127 329 321 148 19 238 187 221 194 177 205 158 178 149 162 211 100 254 297 339 324 273 188 233 267 132 187 178 112 171 103 268 150 254 255 255 248 242 233
204 194 189 186 187 135 178 304 158 48 258 252 182 160 120 204 235 304 174 124 127 83 309 253 286 238 225 293 273 319 35 32 51 56 18 218 145 268 183 197 184 216 198 200 215
199 194 192 178 141 83 313 348 50 149 304 182 166 143 139 3 359 126 171 134 164 106 315 332 270 265 243 318 337 60 65 355 359 4 218 196 94 229 205 192 180 185 152 157 162
195 193 193 159 120 105 356 61 193 246 250 258 141 71 80 359 41 355 36 233 238 142 149 113 340 219 247 185 213 339 137 148 261 220 281 82 216 252 182 187 184 182 180 139 129
193 199 196 145 144 5 360 82 215 226 299 157 49 73 4 285 146 50 289 237 199 171 184 161 269 293 244 247 134 291 356 188 124 230 29 270 1 5 351 183 174 199 175 151 134
177 199 200 166 191 180 70 234 243 217 326 69 82 137 177 236 162 89 230 217 234 202 131 241 324 304 317 54 313 161 189 19 13 24 323 329 310 221 210 209 159 154 161 146 136
151 207 174 181 195 215 177 241 289 291 334 134 190 149 157 198 156 177 247 297 191 76 83 33 96 291 20 8 281 351 350 47 114 133 166 200 265 213 195 202 173 142 145 136 127
165 333 172 184 139 214 193 217 281 302 309 259 119 107 168 170 199 232 238 218 180 140 161 217 164 295 252 261 276 161 69 114 109 276 229 146 278 349 221 146 137 139 139 147 147
291 290 169 183 152 278 277 284 293 299 267 9 51 90 178 144 153 193 230 186 162 152 179 189 34 15 342 353 1 34 349 47 133 100 279 118 270 0 91 104 134 142 151 154 163
349 3 178 202 223 172 296 286 286 313 291 84 149 88 45 16 39 297 345 211 182 157 142 104 118 153 193 219 215 308 329 16 87 100 241 221 224 11 79 127 150 157 167 182 197
294 275 17 271 276 241 156 294 309 317 323 248 358 166 149 93 27 2 343 7 42 141 153 107 181 175 233 232 275 285 314 326 325 248 183 266 167 206 182 166 174 184 201 204 204
357 3 333 285 288 197 153 265 243 280 219 325 195 243 67 117 158 142 98 45 327 248 209 14 252 163 265 280 257 255 283 298 296 274 294 162 169 197 190 159 149 152 145 164 198
208 274 290 288 2 41 63 276 290 331 297 165 87 93 80 160 154 105 51 109 195 200 219 158 137 63 278 270 326 328 257 259 257 274 196 189 209 170 162 152 146 139 139 131 132